W7KKE-3 Weather Reports


time (UTC)temp
F
wind
direction
speed
knots
gust
knots
rain 1hr
in
rain 24hr
in
rain mn
in
humidity
%
barometer
mb
20260831134825 55 103 3.5 3.5 0.00 0.00 0.00 86 1007.2
20260831134326 55 109 2.6 3.5 0.00 0.00 0.00 86 1007.4
20260831133825 55 91 0.0 3.5 0.00 0.00 0.00 85 1007.4
20260831133325 55 89 0.0 3.5 0.00 0.00 0.00 85 1007.4
20260831132826 55 110 2.6 2.6 0.00 0.00 0.00 85 1007.4
20260831132325 55 117 0.9 2.6 0.00 0.00 0.00 85 1007.5
20260831131825 55 99 1.7 3.5 0.00 0.00 0.00 85 1007.5
20260831130825 55 103 0.9 3.5 0.00 0.00 0.00 85 1007.6
20260831130325 55 113 1.7 2.6 0.00 0.00 0.00 85 1007.6
20260831125827 55 92 1.7 2.6 0.00 0.00 0.00 85 1007.6
20260831125325 55 77 1.7 2.6 0.00 0.00 0.00 85 1007.6
20260831124825 55 91 0.0 2.6 0.00 0.00 0.00 85 1007.5
20260831123825 55 105 0.9 1.7 0.00 0.00 0.00 85 1007.5
20260831123326 55 0 0.0 0.0 0.00 0.00 0.00 85 1007.6
20260831122826 55 0 0.0 0.0 0.00 0.00 0.00 85 1007.7
20260831122325 55 0 0.0 2.6 0.00 0.00 0.00 85 1007.7
20260831121825 55 85 0.0 2.6 0.00 0.00 0.00 85 1007.8
20260831121326 55 107 0.9 2.6 0.00 0.00 0.00 85 1007.7
20260831120825 55 84 2.6 2.6 0.00 0.00 0.00 84 1007.8
20260831120325 56 93 2.6 2.6 0.00 0.00 0.00 84 1007.8
20260831115826 56 92 1.7 1.7 0.00 0.00 0.00 84 1007.9
20260831115325 56 103 0.9 4.3 0.00 0.00 0.00 84 1007.9
20260831114825 56 106 0.0 4.3 0.00 0.00 0.00 84 1007.9
20260831113825 56 91 3.5 3.5 0.00 0.00 0.00 84 1007.9
20260831113325 56 103 3.5 3.5 0.00 0.00 0.00 84 1007.9
20260831112826 56 100 1.7 3.5 0.00 0.00 0.00 84 1008.0
20260831112325 56 98 1.7 3.5 0.00 0.00 0.00 84 1008.0
20260831111825 56 106 1.7 2.6 0.00 0.00 0.00 84 1008.1
20260831110825 56 0 0.0 1.7 0.00 0.00 0.00 84 1008.1
20260831110325 56 91 0.0 1.7 0.00 0.00 0.00 84 1008.2
20260831105826 56 0 0.9 0.9 0.00 0.00 0.00 84 1008.2
20260831105325 56 0 0.0 1.7 0.00 0.00 0.00 83 1008.2
20260831104825 56 91 0.0 1.7 0.00 0.00 0.00 83 1008.2
20260831104326 56 102 0.9 1.7 0.00 0.00 0.00 83 1008.1
20260831103825 56 99 0.9 1.7 0.00 0.00 0.00 83 1008.1
20260831103325 56 88 0.9 0.9 0.00 0.00 0.00 83 1008.2
20260831102826 56 75 0.0 1.7 0.00 0.00 0.00 83 1008.2
20260831102326 57 86 0.9 1.7 0.00 0.00 0.00 83 1008.2
20260831101825 57 86 0.9 1.7 0.00 0.00 0.00 83 1008.2
20260831101326 57 0 0.0 0.0 0.00 0.00 0.00 83 1008.3
20260831100825 57 0 0.0 0.0 0.00 0.00 0.00 83 1008.4
20260831100325 56 0 0.0 0.0 0.00 0.00 0.00 83 1008.5
20260831095826 57 0 0.0 0.0 0.00 0.00 0.00 83 1008.5
20260831094825 57 102 1.7 3.5 0.00 0.00 0.00 83 1008.4
20260831094326 57 113 2.6 3.5 0.00 0.00 0.00 83 1008.5
20260831093825 57 106 2.6 3.5 0.00 0.00 0.00 83 1008.6
20260831093326 57 93 1.7 3.5 0.00 0.00 0.00 83 1008.6
20260831092826 57 89 1.7 3.5 0.00 0.00 0.00 82 1008.7
20260831092325 57 100 1.7 3.5 0.00 0.00 0.00 82 1008.7
20260831091825 57 102 2.6 2.6 0.00 0.00 0.00 82 1008.9
20260831091326 57 117 2.6 3.5 0.00 0.00 0.00 82 1008.9
20260831090825 57 106 2.6 3.5 0.00 0.00 0.00 82 1009.0
20260831090325 57 103 1.7 3.5 0.00 0.00 0.00 82 1009.0
20260831085826 57 91 2.6 2.6 0.00 0.00 0.00 82 1009.0
20260831085325 58 92 1.7 1.7 0.00 0.00 0.00 82 1009.1
20260831084825 58 107 1.7 1.7 0.00 0.00 0.00 82 1009.2
20260831084326 58 102 1.7 1.7 0.00 0.00 0.00 82 1009.3
20260831083825 58 0 0.0 0.0 0.00 0.00 0.00 82 1009.3
20260831083325 58 79 0.0 1.7 0.00 0.00 0.00 82 1009.4
20260831082826 58 105 0.0 1.7 0.00 0.00 0.00 81 1009.4
20260831082326 58 91 1.7 1.7 0.00 0.00 0.00 81 1009.3
20260831081825 58 89 1.7 2.6 0.00 0.00 0.00 81 1009.3
20260831081448 58 91 2.6 2.6 0.00 0.00 0.00 81 1009.4
20260831081326 58 91 2.6 2.6 0.00 0.00 0.00 81 1009.4
20260831080825 58 119 1.7 2.6 0.00 0.00 0.00 81 1009.5
20260831080327 58 0 0.0 0.0 0.00 0.00 0.00 81 1009.5
20260831075826 58 0 0.0 1.7 0.00 0.00 0.00 81 1009.7
20260831075326 58 86 0.0 1.7 0.00 0.00 0.00 81 1009.7
20260831074825 58 88 1.7 1.7 0.00 0.00 0.00 81 1009.7
20260831074326 58 107 0.9 3.5 0.00 0.00 0.00 81 1009.7
20260831073325 59 100 1.7 3.5 0.00 0.00 0.00 81 1009.7
20260831072826 59 103 1.7 2.6 0.00 0.00 0.00 81 1009.7
20260831072325 59 99 1.7 3.5 0.00 0.00 0.00 81 1009.8
20260831071825 59 103 1.7 3.5 0.00 0.00 0.00 81 1009.9
20260831071326 59 110 1.7 3.5 0.00 0.00 0.00 81 1009.9
20260831070825 59 105 2.6 3.5 0.00 0.00 0.00 81 1010.0
20260831070325 59 114 1.7 2.6 0.00 0.00 0.00 81 1010.1
20260831065826 58 0 0.9 0.9 0.00 0.00 0.00 80 1010.1
20260831065325 58 0 0.0 0.0 0.00 0.00 0.00 80 1010.2
20260831064825 59 0 0.0 0.9 0.00 0.00 0.00 80 1010.2
20260831064326 59 0 0.0 0.9 0.00 0.00 0.00 80 1010.2
20260831063825 58 33 0.0 0.9 0.00 0.00 0.00 80 1010.3
20260831063325 58 71 0.0 0.0 0.00 0.00 0.00 80 1010.3
20260831062826 58 89 0.0 2.6 0.00 0.00 0.00 80 1010.5
20260831062325 59 100 0.9 2.6 0.00 0.00 0.00 79 1010.4
20260831061825 59 88 0.9 2.6 0.00 0.00 0.00 79 1010.5
20260831061326 59 114 1.7 1.7 0.00 0.00 0.00 79 1010.6
20260831060825 59 0 0.0 0.0 0.00 0.00 0.00 79 1010.5
20260831060325 59 0 0.0 2.6 0.00 0.00 0.00 79 1010.6
20260831055826 59 0 0.0 2.6 0.00 0.00 0.00 79 1010.7
20260831055325 59 95 0.0 2.6 0.00 0.00 0.00 79 1010.8
20260831054825 59 98 1.7 1.7 0.00 0.00 0.00 79 1010.8
20260831054326 59 109 0.9 2.6 0.00 0.00 0.00 78 1010.7
20260831053825 59 82 1.7 2.6 0.00 0.00 0.00 78 1010.8
20260831053325 59 99 1.7 2.6 0.00 0.00 0.00 78 1010.9
20260831052826 60 93 2.6 2.6 0.00 0.00 0.00 78 1010.9
20260831052325 59 114 1.7 2.6 0.00 0.00 0.00 78 1011.0
20260831051825 60 96 1.7 2.6 0.00 0.00 0.00 77 1011.0
20260831051326 60 86 1.7 2.6 0.00 0.00 0.00 77 1011.1
20260831050825 60 102 1.7 3.5 0.00 0.00 0.00 77 1011.2
20260831050325 60 109 1.7 3.5 0.00 0.00 0.00 77 1011.2
20260831045826 60 117 2.6 3.5 0.00 0.00 0.00 77 1011.2
20260831045325 60 96 1.7 2.6 0.00 0.00 0.00 77 1011.3
20260831044825 60 99 1.7 2.6 0.00 0.00 0.00 77 1011.3
20260831044326 61 93 1.7 2.6 0.00 0.00 0.00 76 1011.5
20260831043825 60 84 0.9 1.7 0.00 0.00 0.00 76 1011.5
20260831043325 60 105 0.9 2.6 0.00 0.00 0.00 75 1011.5
20260831042826 61 85 1.7 2.6 0.00 0.00 0.00 75 1011.5
20260831042325 61 107 1.7 2.6 0.00 0.00 0.00 75 1011.5
20260831041825 61 98 1.7 2.6 0.00 0.00 0.00 75 1011.5
20260831041326 61 100 1.7 2.6 0.00 0.00 0.00 75 1011.5
20260831040825 61 98 0.9 2.6 0.00 0.00 0.00 74 1011.5
20260831040325 62 100 1.7 2.6 0.00 0.00 0.00 74 1011.5
20260831035826 62 75 0.9 1.7 0.00 0.00 0.00 74 1011.6
20260831035325 62 82 0.0 4.3 0.00 0.00 0.00 74 1011.6
20260831034826 62 112 0.9 4.3 0.00 0.00 0.00 74 1011.6
20260831034326 62 36 1.7 4.3 0.00 0.00 0.00 74 1011.6
20260831033825 63 102 1.7 1.7 0.00 0.00 0.00 73 1011.6
20260831033325 63 100 0.0 1.7 0.00 0.00 0.00 73 1011.6
20260831032826 63 291 0.0 7.8 0.00 0.00 0.00 73 1011.6
20260831032401 63 344 0.9 7.8 0.00 0.00 0.00 73 1011.6
20260831032325 63 344 0.9 7.8 0.00 0.00 0.00 73 1011.6
20260831031825 63 322 3.5 7.8 0.00 0.00 0.00 73 1011.6
20260831031326 64 331 2.6 4.3 0.00 0.00 0.00 72 1011.6
20260831030825 64 292 0.9 6.1 0.00 0.00 0.00 72 1011.7
20260831030325 64 334 2.6 6.1 0.00 0.00 0.00 72 1011.6
20260831025826 64 338 0.9 6.1 0.00 0.00 0.00 71 1011.7
20260831025325 64 22 4.3 5.2 0.00 0.00 0.00 71 1011.7
20260831024825 64 319 2.6 8.7 0.00 0.00 0.00 71 1011.7
20260831024326 65 337 3.5 8.7 0.00 0.00 0.00 71 1011.8
20260831023825 65 350 4.3 8.7 0.00 0.00 0.00 70 1011.7
20260831023325 65 322 6.1 11.3 0.00 0.00 0.00 70 1011.8
20260831022826 65 347 6.1 11.3 0.00 0.00 0.00 70 1011.8
20260831022325 65 317 6.1 11.3 0.00 0.00 0.00 70 1011.9
20260831021825 66 322 5.2 10.4 0.00 0.00 0.00 69 1011.9
20260831020825 66 338 6.1 10.4 0.00 0.00 0.00 69 1012.0
20260831020325 66 341 6.1 8.7 0.00 0.00 0.00 69 1012.1
20260831015826 66 324 4.3 9.6 0.00 0.00 0.00 68 1012.1
20260831015325 66 336 5.2 9.6 0.00 0.00 0.00 68 1012.1
20260831014825 66 317 6.1 9.6 0.00 0.00 0.00 68 1012.1
20260831014326 66 336 5.2 13.9 0.00 0.00 0.00 67 1012.1
20260831013825 66 329 8.7 13.9 0.00 0.00 0.00 67 1012.2
20260831013325 66 331 7.8 13.9 0.00 0.00 0.00 66 1012.4
20260831012826 67 337 7.8 13.0 0.00 0.00 0.00 66 1012.4
20260831012325 67 345 7.8 17.4 0.00 0.00 0.00 66 1012.4
20260831011825 67 7 7.0 17.4 0.00 0.00 0.00 67 1012.5
20260831011327 67 347 7.8 17.4 0.00 0.00 0.00 66 1012.6
20260831010825 67 331 6.1 13.9 0.00 0.00 0.00 67 1012.6
20260831010325 67 317 7.8 12.2 0.00 0.00 0.00 67 1012.7
20260831005826 67 323 7.0 16.5 0.00 0.00 0.00 67 1012.7
20260831005325 67 345 9.6 16.5 0.00 0.00 0.00 67 1012.8
20260831004825 67 316 7.8 16.5 0.00 0.00 0.00 67 1012.9
20260831004327 67 324 8.7 15.6 0.00 0.00 0.00 67 1013.0
20260831003825 67 312 8.7 19.1 0.00 0.00 0.00 67 1013.0
20260831003325 67 322 8.7 19.1 0.00 0.00 0.00 67 1013.1
20260831002826 67 320 10.4 19.1 0.00 0.00 0.00 66 1013.2
20260831002325 67 323 9.6 18.2 0.00 0.00 0.00 66 1013.3
20260831001825 67 331 9.6 17.4 0.00 0.00 0.00 66 1013.3
20260831001326 67 317 9.6 17.4 0.00 0.00 0.00 66 1013.2
20260831000825 67 331 12.2 16.5 0.00 0.00 0.00 66 1013.2
20260831000325 68 330 10.4 16.5 0.00 0.00 0.00 66 1013.3
20260830235826 67 329 9.6 16.5 0.00 0.00 0.00 66 1013.4
20260830235325 68 319 10.4 19.1 0.00 0.00 0.00 66 1013.3
20260830234825 68 316 11.3 19.1 0.00 0.00 0.00 66 1013.5
20260830234326 67 344 10.4 19.1 0.00 0.00 0.00 66 1013.5
20260830233825 67 309 10.4 17.4 0.00 0.00 0.00 66 1013.5
20260830233325 68 322 11.3 17.4 0.00 0.00 0.00 66 1013.6
20260830232826 68 322 9.6 17.4 0.00 0.00 0.00 67 1013.6
20260830232325 67 319 9.6 20.0 0.00 0.00 0.00 67 1013.7
20260830231825 67 323 8.7 20.0 0.00 0.00 0.00 67 1013.7
20260830231326 67 329 11.3 20.0 0.00 0.00 0.00 67 1013.8
20260830230825 68 308 12.2 19.1 0.00 0.00 0.00 67 1013.9
20260830230325 68 313 11.3 19.1 0.00 0.00 0.00 67 1013.9
20260830225826 68 333 13.0 20.9 0.00 0.00 0.00 67 1014.0
20260830225325 68 324 12.2 20.9 0.00 0.00 0.00 67 1014.0
20260830224825 68 309 13.0 20.9 0.00 0.00 0.00 67 1014.1
20260830224326 68 320 14.8 20.9 0.00 0.00 0.00 67 1014.2
20260830223825 68 341 11.3 20.9 0.00 0.00 0.00 67 1014.2
20260830223325 68 336 12.2 21.7 0.00 0.00 0.00 67 1014.3
20260830222826 68 319 13.0 21.7 0.00 0.00 0.00 66 1014.3
20260830222325 68 344 12.2 21.7 0.00 0.00 0.00 67 1014.4
20260830221825 68 313 11.3 20.9 0.00 0.00 0.00 67 1014.5
20260830221326 68 308 13.0 19.1 0.00 0.00 0.00 67 1014.5
20260830220825 68 326 12.2 19.1 0.00 0.00 0.00 68 1014.5
20260830220325 68 334 10.4 19.1 0.00 0.00 0.00 68 1014.6
20260830215826 68 308 9.6 18.2 0.00 0.00 0.00 69 1014.7
20260830215326 68 324 9.6 19.1 0.00 0.00 0.00 69 1014.8
20260830214825 68 333 12.2 19.1 0.00 0.00 0.00 69 1014.8
20260830214327 68 331 10.4 19.1 0.00 0.00 0.00 69 1014.9
20260830213825 68 310 12.2 19.1 0.00 0.00 0.00 69 1015.0
20260830213325 68 330 11.3 19.1 0.00 0.00 0.00 69 1014.9
20260830212826 68 306 10.4 19.1 0.00 0.00 0.00 68 1014.9
20260830212325 69 340 10.4 20.0 0.00 0.00 0.00 68 1014.9
20260830211825 68 336 10.4 20.0 0.00 0.00 0.00 69 1014.9
20260830211326 68 323 11.3 20.0 0.00 0.00 0.00 68 1014.9
20260830210826 68 331 11.3 19.1 0.00 0.00 0.00 68 1014.9
20260830210325 69 329 11.3 18.2 0.00 0.00 0.00 68 1015.0
20260830205826 69 334 10.4 18.2 0.00 0.00 0.00 68 1015.1
20260830205325 69 322 10.4 16.5 0.00 0.00 0.00 68 1015.1
20260830204825 69 322 11.3 20.0 0.00 0.00 0.00 68 1015.1
20260830204326 69 320 10.4 20.0 0.00 0.00 0.00 68 1015.2
20260830203825 69 334 11.3 20.0 0.00 0.00 0.00 68 1015.2
20260830203325 69 12 12.2 18.2 0.00 0.00 0.00 68 1015.3
20260830202826 69 322 10.4 18.2 0.00 0.00 0.00 68 1015.4
20260830202325 69 322 11.3 18.2 0.00 0.00 0.00 68 1015.5
20260830201825 69 323 11.3 18.2 0.00 0.00 0.00 68 1015.6
20260830201326 69 326 11.3 18.2 0.00 0.00 0.00 67 1015.5
20260830200825 69 312 10.4 17.4 0.00 0.00 0.00 67 1015.5
20260830200325 69 333 10.4 17.4 0.00 0.00 0.00 66 1015.5
20260830195826 69 322 12.2 17.4 0.00 0.00 0.00 65 1015.6
20260830195325 69 320 10.4 15.6 0.00 0.00 0.00 66 1015.6
20260830194825 69 331 9.6 15.6 0.00 0.00 0.00 65 1015.7
20260830194326 69 334 10.4 15.6 0.00 0.00 0.00 65 1015.8
20260830193825 69 338 10.4 15.6 0.00 0.00 0.00 66 1015.8
20260830193325 69 310 9.6 15.6 0.00 0.00 0.00 67 1015.9
20260830192325 69 326 7.8 14.8 0.00 0.00 0.00 69 1015.8
20260830191825 69 296 7.8 12.2 0.00 0.00 0.00 69 1015.9
20260830191327 68 333 7.8 14.8 0.00 0.00 0.00 69 1015.9
20260830190825 68 327 7.8 14.8 0.00 0.00 0.00 70 1016.0
20260830190325 68 336 7.0 14.8 0.00 0.00 0.00 72 1016.0
20260830185826 68 308 9.6 13.9 0.00 0.00 0.00 70 1016.1
20260830185325 68 317 7.8 12.2 0.00 0.00 0.00 70 1016.1
20260830184825 68 301 6.1 13.0 0.00 0.00 0.00 70 1016.0
20260830184326 68 336 8.7 13.0 0.00 0.00 0.00 70 1016.1
20260830183825 68 345 6.1 13.0 0.00 0.00 0.00 71 1016.2
20260830183325 68 338 8.7 11.3 0.00 0.00 0.00 69 1016.1
20260830182826 68 336 6.1 11.3 0.00 0.00 0.00 71 1016.1
20260830182325 68 324 7.0 11.3 0.00 0.00 0.00 71 1016.2
20260830181825 68 21 8.7 8.7 0.00 0.00 0.00 71 1016.2
20260830181326 68 315 4.3 8.7 0.00 0.00 0.00 71 1016.2
20260830180825 67 336 7.0 10.4 0.00 0.00 0.00 72 1016.3
20260830180325 67 320 3.5 10.4 0.00 0.00 0.00 73 1016.3
20260830175826 67 326 5.2 10.4 0.00 0.00 0.00 73 1016.3
20260830175325 67 319 7.0 7.8 0.00 0.00 0.00 73 1016.3
20260830174826 66 336 3.5 7.8 0.00 0.00 0.00 75 1016.3
20260830174326 66 341 0.9 7.8 0.00 0.00 0.00 76 1016.3
20260830173825 65 308 1.7 7.8 0.00 0.00 0.00 77 1016.4
20260830173326 65 280 4.3 6.1 0.00 0.00 0.00 78 1016.4
20260830172826 65 306 2.6 5.2 0.00 0.00 0.00 77 1016.4
20260830172325 65 292 2.6 7.0 0.00 0.00 0.00 77 1016.4
20260830171825 64 285 3.5 7.0 0.00 0.00 0.00 77 1016.5
20260830171326 64 270 2.6 7.0 0.00 0.00 0.00 77 1016.4
20260830170825 64 295 2.6 7.0 0.00 0.00 0.00 77 1016.4
20260830170325 64 295 2.6 5.2 0.00 0.00 0.00 77 1016.4
20260830165826 63 291 3.5 5.2 0.00 0.00 0.00 78 1016.4
20260830165325 63 302 3.5 4.3 0.00 0.00 0.00 79 1016.4
20260830164825 63 312 0.0 4.3 0.00 0.00 0.00 80 1016.4
20260830164326 62 298 0.9 3.5 0.00 0.00 0.00 79 1016.4
20260830163825 62 280 0.0 2.6 0.00 0.00 0.00 81 1016.5
20260830163325 61 288 1.7 2.6 0.00 0.00 0.00 83 1016.5
20260830162826 60 296 1.7 2.6 0.00 0.00 0.00 84 1016.5
20260830162325 59 288 1.7 2.6 0.00 0.00 0.00 85 1016.5
20260830161825 58 330 0.0 2.6 0.00 0.00 0.00 87 1016.5
20260830161326 58 0 0.9 0.9 0.00 0.00 0.00 88 1016.5
20260830160825 57 0 0.0 0.0 0.00 0.00 0.00 88 1016.6
20260830160325 56 0 0.0 1.7 0.00 0.00 0.00 88 1016.6
20260830155826 55 0 0.0 1.7 0.00 0.00 0.00 88 1016.6
20260830155325 55 42 0.0 1.7 0.00 0.00 0.00 88 1016.6
20260830154825 55 0 0.0 1.7 0.00 0.00 0.00 87 1016.7
20260830154326 54 134 0.0 1.7 0.00 0.00 0.00 88 1016.7
20260830153825 54 0 0.0 0.0 0.00 0.00 0.00 88 1016.7
20260830153325 54 106 0.0 4.3 0.00 0.00 0.00 87 1016.7
20260830152826 54 113 0.0 4.3 0.00 0.00 0.00 88 1016.6
20260830152325 54 117 1.7 4.3 0.00 0.00 0.00 88 1016.6
20260830151825 54 102 1.7 3.5 0.00 0.00 0.00 88 1016.6
20260830151326 54 112 1.7 4.3 0.00 0.00 0.00 88 1016.6
20260830150825 54 106 1.7 4.3 0.00 0.00 0.00 88 1016.6
20260830150325 53 105 0.9 4.3 0.00 0.00 0.00 88 1016.6
20260830145826 53 105 0.9 6.1 0.00 0.00 0.00 88 1016.6
20260830145325 53 103 2.6 6.1 0.00 0.00 0.00 88 1016.6
20260830144825 53 107 2.6 6.1 0.00 0.00 0.00 88 1016.7
20260830144326 53 93 3.5 4.3 0.00 0.00 0.00 88 1016.7
20260830143825 53 103 1.7 5.2 0.00 0.00 0.00 88 1016.6
20260830143325 53 113 1.7 5.2 0.00 0.00 0.00 88 1016.7
20260830142826 52 127 1.7 5.2 0.00 0.00 0.00 88 1016.6
20260830142325 52 119 1.7 3.5 0.00 0.00 0.00 88 1016.6
20260830141825 52 145 0.9 5.2 0.00 0.00 0.00 88 1016.6
20260830141326 52 124 0.9 5.2 0.00 0.00 0.00 88 1016.6
20260830140825 52 107 2.6 5.2 0.00 0.00 0.00 88 1016.6
20260830140325 52 119 2.6 5.2 0.00 0.00 0.00 88 1016.7
20260830135826 52 100 3.5 5.2 0.00 0.00 0.00 88 1016.7
20260830135325 52 140 2.6 5.2 0.00 0.00 0.00 88 1016.7